GW4987 Weather Reports


time (UTC)temp
F
wind
direction
speed
knots
gust
knots
rain 1hr
in
rain 24hr
in
rain mn
in
humidity
%
barometer
mb
20260905193503 78 215 6.1 13.0 0.00 0.00 0.00 39 1023.0
20260905193003 79 245 10.4 17.4 0.00 0.00 0.00 38 1022.9
20260905192503 78 185 4.3 7.8 0.00 0.00 0.00 37 1022.7
20260905192003 79 131 11.3 16.5 0.00 0.00 0.00 36 1022.9
20260905191504 79 141 10.4 12.2 0.00 0.00 0.00 36 1023.1
20260905191003 79 133 6.1 12.2 0.00 0.00 0.00 35 1022.9
20260905185003 79 182 7.0 7.8 0.00 0.00 0.00 34 1023.4
20260905184503 79 199 6.1 11.3 0.00 0.00 0.00 34 1023.5
20260905184003 79 153 5.2 10.4 0.00 0.00 0.00 35 1023.2
20260905183503 80 145 1.7 13.0 0.00 0.00 0.00 34 1023.2
20260905183003 78 222 3.5 7.8 0.00 0.00 0.00 34 1023.2
20260905182503 79 196 12.2 16.5 0.00 0.00 0.00 33 1023.2
20260905182004 78 248 4.3 10.4 0.00 0.00 0.00 33 1023.5
20260905181504 79 336 2.6 13.0 0.00 0.00 0.00 33 1023.5
20260905181004 80 165 6.1 10.4 0.00 0.00 0.00 34 1023.4
20260905180503 78 189 4.3 8.7 0.00 0.00 0.00 34 1023.1
20260905180004 77 152 7.0 16.5 0.00 0.00 0.00 35 1023.4
20260905175504 78 141 6.1 13.9 0.00 0.00 0.00 36 1023.5
20260905173504 79 145 5.2 7.0 0.00 0.00 0.00 34 1023.1
20260905173004 79 117 5.2 13.0 0.00 0.00 0.00 35 1023.2
20260905172504 78 139 7.8 13.0 0.00 0.00 0.00 35 1023.2
20260905170504 78 182 9.6 12.2 0.00 0.00 0.00 33 1023.2
20260905170004 79 170 4.3 11.3 0.00 0.00 0.00 34 1023.1
20260905165504 78 150 6.1 8.7 0.00 0.00 0.00 35 1023.4
20260905165004 77 201 4.3 14.8 0.00 0.00 0.00 34 1023.1
20260905164504 78 173 8.7 13.9 0.00 0.00 0.00 35 1023.4
20260905164004 77 227 7.0 11.3 0.00 0.00 0.00 35 1023.1
20260905163504 78 153 0.0 7.0 0.00 0.00 0.00 37 1023.1
20260905163004 78 192 2.6 7.0 0.00 0.00 0.00 37 1023.1
20260905162503 77 128 3.5 11.3 0.00 0.00 0.00 38 1023.0
20260905162003 77 128 9.6 11.3 0.00 0.00 0.00 38 1023.2
20260905161504 76 118 5.2 13.9 0.00 0.00 0.00 39 1022.9
20260905161004 77 112 5.2 8.7 0.00 0.00 0.00 38 1022.8
20260905160504 77 141 7.8 9.6 0.00 0.00 0.00 38 1022.9
20260905160004 76 135 4.3 9.6 0.00 0.00 0.00 38 1023.0
20260905155503 77 136 2.6 8.7 0.00 0.00 0.00 37 1023.0
20260905155003 76 126 4.3 11.3 0.00 0.00 0.00 38 1022.8
20260905154503 76 185 2.6 7.8 0.00 0.00 0.00 38 1022.8
20260905154003 77 106 4.3 6.1 0.00 0.00 0.00 39 1022.7
20260905153503 76 125 3.5 5.2 0.00 0.00 0.00 41 1023.0
20260905153004 76 156 2.6 5.2 0.00 0.00 0.00 41 1022.9
20260905152504 75 130 7.0 8.7 0.00 0.00 0.00 42 1022.8
20260905152004 75 82 1.7 5.2 0.00 0.00 0.00 43 1022.7
20260905150003 74 251 0.0 5.2 0.00 0.00 0.00 45 1022.7
20260905145504 73 116 3.5 5.2 0.00 0.00 0.00 46 1022.7
20260905145003 73 128 3.5 3.5 0.00 0.00 0.00 47 1022.9
20260905144503 73 125 4.3 5.2 0.00 0.00 0.00 43 1022.7
20260905144003 72 186 3.5 6.1 0.00 0.00 0.00 44 1022.8
20260905143503 72 162 1.7 3.5 0.00 0.00 0.00 45 1022.5
20260905143003 72 183 1.7 1.7 0.00 0.00 0.00 46 1022.6
20260905142504 70 23 0.0 1.7 0.00 0.00 0.00 48 1022.6
20260905141003 67 79 1.7 2.6 0.00 0.00 0.00 53 1022.6
20260905140503 65 66 0.0 2.6 0.00 0.00 0.00 55 1022.6
20260905140004 65 130 1.7 2.6 0.00 0.00 0.00 56 1022.5
20260905135504 65 234 2.6 2.6 0.00 0.00 0.00 57 1022.4
20260905135004 64 339 0.0 1.7 0.00 0.00 0.00 59 1022.3
20260905134503 61 77 1.7 1.7 0.00 0.00 0.00 63 1022.4
20260905134004 60 259 1.7 4.3 0.00 0.00 0.00 65 1022.3
20260905133503 59 271 3.5 4.3 0.00 0.00 0.00 66 1022.3
20260905133003 58 260 1.7 2.6 0.00 0.00 0.00 67 1022.3
20260905132503 58 201 2.6 2.6 0.00 0.00 0.00 68 1022.3
20260905132004 58 113 3.5 3.5 0.00 0.00 0.00 67 1022.2
20260905131503 57 80 0.0 1.7 0.00 0.00 0.00 68 1022.0
20260905131003 57 283 2.6 3.5 0.00 0.00 0.00 68 1021.9
20260905130504 56 279 2.6 3.5 0.00 0.00 0.00 69 1021.8
20260905130004 56 268 3.5 4.3 0.00 0.00 0.00 68 1022.1
20260905125504 57 262 4.3 6.1 0.00 0.00 0.00 68 1022.0
20260905125004 56 279 2.6 4.3 0.00 0.00 0.00 67 1021.9
20260905123003 57 194 0.0 1.7 0.00 0.00 0.00 65 1021.7
20260905122503 57 37 0.0 0.0 0.00 0.00 0.00 64 1021.7
20260905122004 58 43 0.0 1.7 0.00 0.00 0.00 63 1021.8
20260905121503 59 88 2.6 3.5 0.00 0.00 0.00 61 1021.6
20260905121003 61 308 0.0 3.5 0.00 0.00 0.00 58 1021.7
20260905120503 61 265 3.5 4.3 0.00 0.00 0.00 57 1021.8
20260905120004 61 263 3.5 5.2 0.00 0.00 0.00 57 1021.7
20260905115504 63 261 4.3 4.3 0.00 0.00 0.00 55 1021.7
20260905113504 62 265 4.3 6.1 0.00 0.00 0.00 54 1021.7
20260905113004 61 269 4.3 5.2 0.00 0.00 0.00 56 1021.6
20260905112504 60 267 2.6 4.3 0.00 0.00 0.00 57 1021.6
20260905112004 60 261 4.3 4.3 0.00 0.00 0.00 58 1021.7
20260905111503 59 264 3.5 4.3 0.00 0.00 0.00 59 1021.7
20260905111004 58 237 2.6 4.3 0.00 0.00 0.00 60 1021.9
20260905110503 57 253 3.5 3.5 0.00 0.00 0.00 62 1021.8
20260905110004 56 253 2.6 3.5 0.00 0.00 0.00 62 1021.8
20260905105504 55 249 1.7 4.3 0.00 0.00 0.00 64 1021.7
20260905105003 56 272 2.6 2.6 0.00 0.00 0.00 63 1021.5
20260905104503 56 247 2.6 2.6 0.00 0.00 0.00 62 1021.7
20260905104003 56 263 2.6 3.5 0.00 0.00 0.00 62 1021.8
20260905103503 57 259 1.7 2.6 0.00 0.00 0.00 60 1021.6
20260905103004 58 260 2.6 3.5 0.00 0.00 0.00 58 1021.7
20260905102504 59 234 1.7 3.5 0.00 0.00 0.00 57 1021.6
20260905102004 59 215 1.7 2.6 0.00 0.00 0.00 56 1021.5
20260905101504 60 255 2.6 3.5 0.00 0.00 0.00 54 1021.5
20260905101003 61 265 3.5 3.5 0.00 0.00 0.00 54 1021.3
20260905100503 61 232 2.6 3.5 0.00 0.00 0.00 53 1021.4
20260905100003 61 255 3.5 5.2 0.00 0.00 0.00 53 1021.6
20260905095504 61 197 2.6 5.2 0.00 0.00 0.00 54 1021.7
20260905095004 62 203 5.2 6.1 0.00 0.00 0.00 52 1021.8
20260905094504 62 204 5.2 10.4 0.00 0.00 0.00 52 1021.7
20260905094004 60 243 4.3 5.2 0.00 0.00 0.00 53 1021.7
20260905093503 60 185 3.5 6.1 0.00 0.00 0.00 53 1021.8
20260905093004 60 256 4.3 4.3 0.00 0.00 0.00 53 1021.6
20260905092504 60 248 2.6 4.3 0.00 0.00 0.00 53 1021.7
20260905092004 60 208 2.6 4.3 0.00 0.00 0.00 52 1021.8
20260905091504 60 228 4.3 4.3 0.00 0.00 0.00 53 1021.8
20260905091003 60 216 4.3 4.3 0.00 0.00 0.00 53 1021.8
20260905090503 60 229 0.0 5.2 0.00 0.00 0.00 52 1021.9
20260905090004 58 202 3.5 4.3 0.00 0.00 0.00 54 1021.7
20260905085503 57 225 2.6 3.5 0.00 0.00 0.00 55 1021.8
20260905085003 57 269 0.0 3.5 0.00 0.00 0.00 56 1021.8
20260905084504 57 244 1.7 3.5 0.00 0.00 0.00 56 1021.8
20260905084004 57 247 1.7 2.6 0.00 0.00 0.00 55 1021.9
20260905083504 58 256 1.7 4.3 0.00 0.00 0.00 54 1021.9
20260905083004 58 242 0.0 3.5 0.00 0.00 0.00 54 1021.8
20260905082503 58 274 1.7 1.7 0.00 0.00 0.00 53 1022.0
20260905082003 58 280 2.6 4.3 0.00 0.00 0.00 53 1022.1
20260905081504 58 257 2.6 2.6 0.00 0.00 0.00 54 1022.1
20260905075503 58 263 3.5 3.5 0.00 0.00 0.00 54 1022.0
20260905075003 58 261 1.7 2.6 0.00 0.00 0.00 55 1022.1
20260905074503 59 264 2.6 3.5 0.00 0.00 0.00 53 1021.9
20260905074003 59 273 3.5 4.3 0.00 0.00 0.00 53 1021.8
20260905073503 59 267 2.6 2.6 0.00 0.00 0.00 53 1022.2
20260905073004 60 267 2.6 2.6 0.00 0.00 0.00 52 1022.0
20260905071004 62 259 2.6 3.5 0.00 0.00 0.00 50 1022.0
20260905070504 62 260 1.7 2.6 0.00 0.00 0.00 49 1022.0
20260905070004 62 266 1.7 2.6 0.00 0.00 0.00 49 1022.0
20260905065504 63 266 1.7 2.6 0.00 0.00 0.00 48 1022.1
20260905065004 64 261 2.6 2.6 0.00 0.00 0.00 46 1022.1
20260905064504 64 272 1.7 2.6 0.00 0.00 0.00 46 1022.2
20260905062503 66 229 2.6 4.3 0.00 0.00 0.00 43 1021.8
20260905062003 67 240 2.6 2.6 0.00 0.00 0.00 43 1021.7
20260905061504 66 259 2.6 2.6 0.00 0.00 0.00 43 1021.9
20260905054004 68 254 0.0 2.6 0.00 0.00 0.00 44 1021.7
20260905053504 68 237 2.6 3.5 0.00 0.00 0.00 44 1021.8
20260905053004 69 201 1.7 2.6 0.00 0.00 0.00 43 1021.8
20260905052503 69 229 2.6 3.5 0.00 0.00 0.00 43 1021.8
20260905052003 69 219 3.5 4.3 0.00 0.00 0.00 44 1021.9
20260905051503 69 224 2.6 4.3 0.00 0.00 0.00 44 1021.8
20260905051003 70 215 3.5 5.2 0.00 0.00 0.00 43 1021.6
20260905050503 70 219 2.6 5.2 0.00 0.00 0.00 43 1021.7
20260905050004 70 205 4.3 4.3 0.00 0.00 0.00 42 1021.7
20260905045504 70 199 3.5 3.5 0.00 0.00 0.00 42 1021.8
20260905045004 71 209 1.7 6.1 0.00 0.00 0.00 42 1021.5
20260905044504 71 190 4.3 7.8 0.00 0.00 0.00 43 1021.5
20260905042504 71 215 3.5 5.2 0.00 0.00 0.00 51 1021.5
20260905042004 72 188 6.1 8.7 0.00 0.00 0.00 50 1021.6
20260905041504 72 194 7.0 7.8 0.00 0.00 0.00 51 1021.7
20260905041003 71 181 6.1 7.8 0.00 0.00 0.00 51 1021.3
20260905040503 71 193 4.3 6.1 0.00 0.00 0.00 51 1021.3
20260905040004 72 178 3.5 7.8 0.00 0.00 0.00 50 1021.3
20260905035503 72 173 7.8 7.8 0.00 0.00 0.00 50 1021.4
20260905035003 72 208 6.1 7.8 0.00 0.00 0.00 50 1021.5
20260905034504 72 173 4.3 7.0 0.00 0.00 0.00 50 1021.3
20260905032503 72 224 2.6 7.0 0.00 0.00 0.00 50 1021.0
20260905032003 72 217 5.2 9.6 0.00 0.00 0.00 50 1021.1
20260905031504 72 213 3.5 7.8 0.00 0.00 0.00 50 1021.3
20260905031003 72 188 5.2 7.0 0.00 0.00 0.00 50 1020.9
20260905030504 72 226 4.3 8.7 0.00 0.00 0.00 50 1020.7
20260905030004 72 224 4.3 7.0 0.00 0.00 0.00 49 1020.7
20260905024003 72 167 5.2 11.3 0.00 0.00 0.00 47 1020.7
20260905023503 73 177 6.1 8.7 0.00 0.00 0.00 47 1020.4
20260905023003 73 226 5.2 13.0 0.00 0.00 0.00 46 1020.5
20260905022503 73 196 4.3 12.2 0.00 0.00 0.00 46 1020.5
20260905022003 73 222 3.5 7.0 0.00 0.00 0.00 46 1020.5
20260905021504 73 213 8.7 13.0 0.00 0.00 0.00 45 1020.5
20260905015503 74 197 9.6 11.3 0.00 0.00 0.00 44 1020.4
20260905015003 74 187 10.4 11.3 0.00 0.00 0.00 44 1020.5
20260905014504 74 200 7.0 13.0 0.00 0.00 0.00 43 1020.4
20260905014003 74 214 6.1 8.7 0.00 0.00 0.00 43 1020.4
20260905013503 74 208 8.7 14.8 0.00 0.00 0.00 42 1020.3
20260905013004 75 211 9.6 12.2 0.00 0.00 0.00 42 1020.4
20260905012504 75 190 15.6 16.5 0.00 0.00 0.00 41 1020.4
20260905012004 76 194 11.3 17.4 0.00 0.00 0.00 40 1020.3
20260905011504 76 195 7.0 19.1 0.00 0.00 0.00 41 1020.3
20260905011004 76 213 7.8 15.6 0.00 0.00 0.00 41 1020.3
20260905010504 76 215 8.7 11.3 0.00 0.00 0.00 41 1020.2
20260905010004 77 216 7.8 12.2 0.00 0.00 0.00 40 1020.2
20260905005504 77 206 9.6 16.5 0.00 0.00 0.00 39 1020.3
20260905005003 77 217 12.2 15.6 0.00 0.00 0.00 41 1020.2
20260905004504 78 202 7.0 13.9 0.00 0.00 0.00 41 1020.3
20260905004003 78 247 7.8 14.8 0.00 0.00 0.00 41 1020.2
20260905003503 77 183 7.0 18.2 0.00 0.00 0.00 41 1020.2
20260905003004 78 218 8.7 13.9 0.00 0.00 0.00 41 1020.4
20260905002503 76 204 12.2 22.6 0.00 0.00 0.00 42 1020.4
20260905002003 77 202 12.2 22.6 0.00 0.00 0.00 43 1020.3
20260905001504 77 207 11.3 20.9 0.00 0.00 0.00 41 1020.4
20260905001003 78 187 12.2 19.1 0.00 0.00 0.00 41 1020.4
20260905000503 76 214 9.6 14.8 0.00 0.00 0.00 43 1020.4
20260905000004 76 209 9.6 20.0 0.00 0.00 0.00 44 1020.4
20260904235504 78 233 11.3 20.0 0.00 0.00 0.00 43 1020.3
20260904235004 78 214 13.0 25.2 0.00 0.00 0.00 42 1020.3
20260904234504 80 199 13.9 25.2 0.00 0.00 0.00 40 1020.2
20260904234004 79 205 8.7 13.0 0.00 0.00 0.00 41 1020.3
20260904233504 79 239 11.3 15.6 0.00 0.00 0.00 41 1020.3
20260904233004 78 241 8.7 14.8 0.00 0.00 0.00 41 1020.5
20260904232504 78 205 13.0 19.1 0.00 0.00 0.00 42 1020.2
20260904232004 78 220 11.3 15.6 0.00 0.00 0.00 43 1020.5
20260904231504 77 191 7.8 20.9 0.00 0.00 0.00 43 1020.3
20260904231003 79 220 11.3 18.2 0.00 0.00 0.00 40 1020.5
20260904230503 78 188 3.5 14.8 0.00 0.00 0.00 41 1020.3
20260904230004 78 210 4.3 14.8 0.00 0.00 0.00 41 1020.4
20260904225504 78 213 11.3 21.7 0.00 0.00 0.00 41 1020.4
20260904225004 79 275 20.0 20.9 0.00 0.00 0.00 40 1020.5
20260904224504 79 187 7.8 21.7 0.00 0.00 0.00 41 1020.5
20260904224003 80 207 9.6 18.2 0.00 0.00 0.00 40 1020.4
20260904223503 79 212 10.4 17.4 0.00 0.00 0.00 40 1020.5
20260904223004 78 207 10.4 19.1 0.00 0.00 0.00 40 1020.6
20260904222504 80 220 8.7 18.2 0.00 0.00 0.00 39 1020.6
20260904222004 80 258 7.0 11.3 0.00 0.00 0.00 38 1020.4
20260904221503 80 214 7.8 13.0 0.00 0.00 0.00 40 1020.7
20260904221003 80 200 8.7 13.9 0.00 0.00 0.00 41 1020.6
20260904220503 80 183 9.6 13.0 0.00 0.00 0.00 40 1020.6
20260904220003 79 187 4.3 13.0 0.00 0.00 0.00 40 1020.7
20260904215503 79 231 7.8 17.4 0.00 0.00 0.00 41 1020.8
20260904215003 79 253 8.7 13.0 0.00 0.00 0.00 41 1020.8
20260904211503 76 164 8.7 20.9 0.00 0.00 0.00 44 1021.1
20260904211003 76 247 11.3 23.5 0.00 0.00 0.00 45 1020.9
20260904210503 78 223 13.0 14.8 0.00 0.00 0.00 45 1021.1
20260904210004 77 197 6.1 14.8 0.00 0.00 0.00 44 1021.3
20260904205503 78 170 7.0 17.4 0.00 0.00 0.00 42 1021.1
20260904205004 76 205 13.9 20.9 0.00 0.00 0.00 45 1021.3
20260904204503 78 226 9.6 15.6 0.00 0.00 0.00 42 1021.0
20260904204003 76 186 12.2 12.2 0.00 0.00 0.00 47 1021.0
20260904203504 77 141 7.0 16.5 0.00 0.00 0.00 46 1021.3
20260904203004 76 173 11.3 18.2 0.00 0.00 0.00 47 1021.5
20260904202504 75 169 8.7 14.8 0.00 0.00 0.00 49 1021.5
20260904202004 75 200 4.3 18.2 0.00 0.00 0.00 49 1021.0
20260904201503 76 189 10.4 17.4 0.00 0.00 0.00 46 1021.3
20260904201003 76 145 6.1 13.0 0.00 0.00 0.00 49 1021.1
20260904200504 77 189 7.8 26.1 0.00 0.00 0.00 47 1021.5
20260904200004 76 188 7.8 8.7 0.00 0.00 0.00 49 1021.6
20260904195503 75 200 12.2 15.6 0.00 0.00 0.00 50 1021.5
20260904195004 76 190 8.7 14.8 0.00 0.00 0.00 47 1021.7
20260904194503 77 211 7.8 20.9 0.00 0.00 0.00 48 1021.5